[[{"header":{"parameterUnit":"m.s-1","parameterCategory":1,"la1":30.2991,"la2":30.254,"lo1":-89.0895,"lo2":-89.0444,"dy":0.0017,"dx":0.0017,"nx":28,"ny":28,"refTime":"2025-04-05T09:00:00:Z","depth":0,"parameterNumber":2,"parameterNumberName":"U-component_of_WINDS"},"data":[0,0,0,0,0,0,0,0,0,0,0,0,0,0,0,0,0,0,0,0,0,0,0,0,0,0,0,0,0,0,0,0,0,0,0,0,0,0,0,0,0,0,0,0,0,0,0,0,0,0,0,0,0,0,0,0,0,0,-0.3937,-0.3938,0,-0.398,-0.3981,-0.3981,-0.4019,-0.402,-0.402,-0.4021,-0.4065,-0.4065,-0.4066,0,0,0,0,0,0,0,0,0,0,0,0,0,-0.3888,-0.3889,-0.3937,-0.3938,-0.3938,-0.398,-0.3981,-0.3982,-0.4019,-0.402,-0.402,-0.4021,-0.4064,-0.4065,-0.4066,0,0,0,0,0,0,0,0,0,0,0,0,0,-0.3918,-0.3889,-0.3937,-0.3962,-0.3965,-0.398,-0.3981,-0.3982,-0.4019,-0.402,-0.4021,-0.4021,-0.4064,-0.4065,-0.4066,-0.406,0,0,-0.407,-0.407,0,0,0,0,0,0,0,0,-0.3917,-0.392,-0.3958,-0.3961,-0.3964,-0.3995,-0.398,-0.4008,-0.4019,-0.3999,-0.4021,-0.4021,-0.4041,-0.4044,-0.4051,-0.4062,-0.4064,-0.407,-0.4071,-0.4071,-0.4071,0,0,0,0,0,0,0,-0.3915,-0.3919,-0.3954,-0.3959,-0.3962,-0.3972,-0.3977,-0.3985,-0.4016,-0.4,-0.4003,-0.4008,-0.4043,-0.4049,-0.4052,-0.4065,-0.407,-0.4071,-0.4072,-0.4072,-0.4074,-0.4074,0,0,0,0,0,0,-0.3909,-0.3917,-0.3953,-0.3956,-0.3941,-0.3972,-0.3978,-0.3984,-0.4016,-0.4021,-0.4007,-0.4009,-0.4047,-0.4051,-0.4054,-0.4049,-0.4071,-0.4072,-0.4073,-0.4075,-0.4074,-0.4073,0,0,0,0,0,0,-0.3907,-0.3911,-0.3951,-0.3937,-0.3943,-0.3972,-0.398,-0.3985,-0.3992,-0.4021,-0.4026,-0.4009,-0.4048,-0.4052,-0.4058,-0.4051,-0.4073,-0.4074,-0.4076,-0.4075,-0.4074,-0.4039,0,0,0,0,0,0,-0.3906,-0.3911,-0.3909,-0.3937,-0.3943,-0.3955,-0.3979,-0.3985,-0.3994,-0.3997,-0.4024,-0.4029,-0.4049,-0.4057,-0.406,-0.4053,-0.4075,-0.4076,-0.4075,-0.4074,-0.4041,-0.4037,-0.4034,0,0,0,0,0,-0.3904,-0.3897,-0.3908,-0.3912,-0.3941,-0.3955,-0.3958,-0.3982,-0.3993,-0.3991,-0.401,-0.4028,-0.4051,-0.4057,-0.4061,-0.4054,-0.4077,-0.4075,-0.4074,-0.4043,-0.4038,-0.4034,0,0,0,0,0,0,-0.3867,-0.3901,-0.3914,-0.3916,-0.3932,-0.3961,-0.3959,-0.3976,-0.3989,-0.3992,-0.402,-0.4026,-0.4029,-0.4042,-0.4048,-0.405,-0.4067,-0.4066,-0.4041,-0.4037,-0.4034,-0.403,-0.4076,0,0,0,0,0,-0.3859,-0.3867,-0.3896,-0.3895,-0.3903,-0.393,-0.3936,-0.3953,-0.3971,-0.3978,-0.3997,-0.4014,-0.4025,-0.4032,-0.4044,-0.4043,-0.405,-0.4041,-0.4037,-0.4034,-0.4033,-0.4034,-0.4031,-0.4069,-0.4069,-0.4069,0,0,-0.3843,-0.3863,-0.3866,-0.3888,-0.3903,-0.3911,-0.3935,-0.3942,-0.3948,-0.3979,-0.3986,-0.4001,-0.4021,-0.4024,-0.4027,-0.4036,-0.4024,-0.4032,-0.4029,-0.403,-0.4033,-0.4029,-0.4026,-0.4068,-0.4068,-0.4068,0,0,-0.3818,-0.3833,-0.3834,-0.3848,-0.387,-0.3888,-0.3888,-0.3915,-0.3926,-0.3933,-0.3957,-0.3965,-0.3983,-0.3997,-0.4007,-0.3987,-0.4004,-0.399,-0.3971,-0.3972,-0.3969,-0.3967,-0.396,-0.3957,-0.3989,-0.3989,-0.3989,0,-0.3795,-0.3807,-0.3832,-0.3838,-0.3848,-0.3876,-0.3878,-0.389,-0.3914,-0.392,-0.393,-0.3955,-0.397,-0.3977,-0.3973,-0.3979,-0.3981,-0.3987,-0.3967,-0.3965,-0.3963,-0.3957,-0.3955,-0.3987,-0.3987,-0.3988,-0.3988,0,-0.3778,-0.3787,-0.3785,-0.3808,-0.3818,-0.3821,-0.3847,-0.3853,-0.3869,-0.3886,-0.3894,-0.3914,-0.3931,-0.3934,-0.3949,-0.3943,-0.3948,-0.3962,-0.3979,-0.3957,-0.3952,-0.395,-0.3985,-0.3985,-0.3986,-0.3986,0,0,-0.3731,-0.3768,-0.3767,-0.3778,-0.3804,-0.3812,-0.3817,-0.3833,-0.3838,-0.3854,-0.386,-0.3875,-0.3888,-0.3899,-0.3917,-0.3917,-0.3901,-0.3932,-0.3933,-0.3926,-0.3896,-0.3886,-0.3883,-0.3913,-0.3912,-0.3912,-0.3895,0,-0.371,-0.3721,-0.3744,-0.3747,-0.3756,-0.3783,-0.3787,-0.3804,-0.382,-0.383,-0.3848,-0.3858,-0.3875,-0.3882,-0.3884,-0.3903,-0.3896,-0.3904,-0.3918,-0.3918,-0.3912,-0.388,-0.3869,-0.3851,-0.3893,-0.3893,-0.3892,0,-0.3687,-0.3702,-0.3706,-0.3732,-0.3737,-0.374,-0.3758,-0.3766,-0.3786,-0.3798,-0.381,-0.3829,-0.3837,-0.3852,-0.3863,-0.3868,-0.3875,-0.3885,-0.3885,-0.3888,-0.3904,-0.3882,-0.3846,-0.3844,-0.3889,-0.389,-0.389,0,-0.3653,-0.3673,-0.3679,-0.3687,-0.3718,-0.372,-0.3733,-0.3753,-0.3762,-0.3777,-0.3783,-0.3799,-0.3807,-0.3819,-0.3842,-0.3851,-0.3851,-0.3868,-0.3861,-0.386,-0.386,-0.3859,-0.3825,-0.3863,-0.3864,-0.3864,-0.3864,0,-0.3627,-0.3629,-0.3664,-0.3667,-0.367,-0.3696,-0.3699,-0.3714,-0.3732,-0.3739,-0.3764,-0.377,-0.38,-0.381,-0.3828,-0.3834,-0.3838,-0.3848,-0.3852,-0.3846,-0.3844,-0.3851,-0.3853,-0.3863,-0.3863,-0.3863,-0.3863,0,-0.3589,-0.3613,-0.3621,-0.3649,-0.3656,-0.3657,-0.3681,-0.3686,-0.3704,-0.3712,-0.3716,-0.3744,-0.3756,-0.3781,-0.38,-0.3812,-0.3815,-0.3823,-0.3808,-0.3811,-0.3803,-0.3804,-0.3772,-0.3769,-0.3809,-0.3808,-0.3808,0,-0.3572,-0.3574,-0.3602,-0.3609,-0.3621,-0.3631,-0.364,-0.3666,-0.3675,-0.3697,-0.3699,-0.3714,-0.3727,-0.3746,-0.3768,-0.3784,-0.3793,-0.3781,-0.3795,-0.3789,-0.3793,-0.3793,-0.3794,-0.3777,-0.3777,-0.3776,-0.3776,0,-0.3538,-0.355,-0.3562,-0.3578,-0.3588,-0.3602,-0.3617,-0.3621,-0.3651,-0.3659,-0.3673,-0.3683,-0.3703,-0.3717,-0.3736,-0.375,-0.3768,-0.3771,-0.377,-0.3764,-0.3755,-0.376,-0.38,-0.3772,-0.3772,-0.3773,-0.3773,-0.3773,-0.3511,-0.3514,-0.3535,-0.3547,-0.3561,-0.3575,-0.3581,-0.3599,-0.3611,-0.3629,-0.3644,-0.3656,-0.3677,-0.3703,-0.3716,-0.3726,-0.3735,-0.3734,-0.3733,-0.3733,-0.373,-0.3753,-0.373,-0.373,-0.373,-0.373,-0.373,0,-0.3479,-0.3494,-0.3505,-0.3526,-0.3536,-0.3552,-0.3569,-0.3577,-0.3587,-0.3605,-0.3617,-0.3633,-0.3647,-0.367,-0.3687,-0.369,-0.3699,-0.3694,-0.3694,-0.3697,-0.3721,-0.3721,-0.3686,-0.3686,-0.3686,-0.3686,-0.3686,-0.3686,-0.3464,-0.347,-0.3484,-0.3498,-0.3513,-0.3525,-0.3534,-0.3547,-0.3561,-0.3577,-0.3589,-0.3604,-0.3624,-0.3642,-0.3656,-0.3662,-0.3667,-0.3659,-0.3668,-0.3691,-0.3695,-0.3699,-0.3698,-0.366,-0.366,-0.3643,-0.3643,-0.3643]},{"header":{"parameterUnit":"m.s-1","parameterCategory":1,"la1":30.2991,"la2":30.254,"lo1":-89.0895,"lo2":-89.0444,"dy":0.0017,"dx":0.0017,"nx":28,"ny":28,"refTime":"2025-04-05T09:00:00:Z","depth":0,"parameterNumber":3,"parameterNumberName":"V-component_of_WINDS"},"data":[0,0,0,0,0,0,0,0,0,0,0,0,0,0,0,0,0,0,0,0,0,0,0,0,0,0,0,0,0,0,0,0,0,0,0,0,0,0,0,0,0,0,0,0,0,0,0,0,0,0,0,0,0,0,0,0,0,0,7.97,7.9702,0,7.9951,7.9954,7.9957,7.9973,7.9971,7.9968,7.9965,8.0224,8.0233,8.0243,0,0,0,0,0,0,0,0,0,0,0,0,0,7.9238,7.9246,7.9699,7.9703,7.9706,7.995,7.9954,7.9957,7.9974,7.997,7.9967,7.9964,8.0221,8.0232,8.0244,0,0,0,0,0,0,0,0,0,0,0,0,0,7.9459,7.9249,7.9699,7.9744,7.975,7.995,7.9954,7.9958,7.9975,7.997,7.9966,7.9962,8.0217,8.0231,8.0245,8.0418,0,0,8.0289,8.0295,0,0,0,0,0,0,0,0,7.9446,7.9476,7.9734,7.9741,7.9748,7.9926,7.9886,8.0112,7.9976,7.9889,7.9965,7.996,8.0129,8.015,8.0206,8.043,8.0441,8.029,8.0299,8.0305,8.0309,0,0,0,0,0,0,0,7.9431,7.9465,7.9799,7.9738,7.9747,7.9752,7.9779,7.9929,8.003,7.9897,7.9898,7.9928,8.0132,8.0193,8.0213,8.0445,8.029,8.0303,8.0311,8.0317,8.0827,8.0832,0,0,0,0,0,0,7.9407,7.9452,7.9791,7.9806,7.9584,7.9764,7.9794,7.9874,8.0028,8.0048,7.9931,7.9928,8.017,8.0196,8.0222,8.0437,8.0305,8.0318,8.0327,8.0822,8.0828,8.0834,0,0,0,0,0,0,7.9397,7.9437,7.9781,7.963,7.9674,7.9776,7.9866,7.9881,7.9942,8.0054,8.0073,7.9975,8.0168,8.0202,8.037,8.0446,8.0325,8.0338,8.0817,8.0824,8.0831,8.0867,0,0,0,0,0,0,7.9383,7.9433,7.9499,7.9631,7.9682,7.9924,7.9871,7.9889,7.9966,7.9964,8.01,8.0118,8.0167,8.0349,8.0384,8.0464,8.0349,8.081,8.082,8.0829,8.0859,8.0875,8.0888,0,0,0,0,0,7.9367,7.9498,7.9502,7.9543,7.9766,7.9928,7.9957,8.001,7.9972,8.004,8.0113,8.0114,8.0432,8.0366,8.0406,8.0491,8.0806,8.0817,8.0828,8.0853,8.0872,8.0887,0,0,0,0,0,0,7.9372,7.9516,7.9522,7.97,7.9802,7.993,8.0017,8.0028,8.0143,8.0136,8.0198,8.0228,8.0395,8.046,8.0383,8.0668,8.0615,8.0634,8.062,8.0639,8.0652,8.0634,8.0361,0,0,0,0,0,7.9393,7.9512,7.9632,7.9778,7.9829,7.9914,7.9987,8.0019,8.0127,8.017,8.0255,8.0361,8.0485,8.0565,8.0685,8.0868,8.09,8.0947,8.0961,8.0972,8.0989,8.1094,8.1118,8.0871,8.0871,8.087,0,0,7.944,7.9534,7.9604,7.9781,7.9864,7.9987,7.995,8.0081,8.0173,8.019,8.0355,8.0421,8.0543,8.0721,8.0803,8.0779,8.1064,8.0987,8.0994,8.1006,8.1108,8.1132,8.1152,8.0878,8.0877,8.0876,0,0,7.9588,7.9669,7.9801,7.9885,8.001,8.0067,8.0099,8.0227,8.0272,8.0438,8.0454,8.0565,8.0776,8.0864,8.0936,8.1119,8.1126,8.1157,8.1231,8.1333,8.1353,8.137,8.1439,8.1462,8.1173,8.1173,8.1173,0,7.9629,7.9814,7.9867,7.9999,8.0078,8.0099,8.0234,8.0313,8.0471,8.0526,8.0497,8.0765,8.0848,8.1048,8.1093,8.115,8.119,8.1142,8.1345,8.1364,8.1381,8.1447,8.1472,8.1176,8.1176,8.1175,8.1175,0,7.9861,7.9989,8.0081,8.0234,8.0323,8.0455,8.053,8.0614,8.0639,8.0699,8.087,8.0971,8.1113,8.1163,8.1188,8.1368,8.135,8.1332,8.128,8.1407,8.147,8.1495,8.118,8.1179,8.1178,8.1178,0,0,8.0018,8.0201,8.0234,8.0305,8.0446,8.0547,8.0682,8.0821,8.0893,8.1002,8.1118,8.1298,8.1284,8.1365,8.1401,8.149,8.1633,8.1463,8.1467,8.1493,8.1841,8.1854,8.1882,8.1638,8.1643,8.1647,8.1831,0,8.0184,8.0423,8.0476,8.0683,8.0804,8.0827,8.0945,8.1045,8.1106,8.1218,8.1285,8.1412,8.1382,8.1433,8.1522,8.1596,8.1704,8.1584,8.1749,8.1754,8.1719,8.1915,8.1929,8.2098,8.1856,8.186,8.1863,0,8.0408,8.0523,8.0742,8.0871,8.0923,8.1028,8.1162,8.1268,8.1383,8.1421,8.1514,8.1541,8.1684,8.1624,8.1824,8.1741,8.1812,8.1859,8.1867,8.1886,8.1817,8.1941,8.2153,8.2179,8.1902,8.1899,8.1896,0,8.0504,8.0714,8.0873,8.0933,8.1085,8.1159,8.1226,8.1337,8.1419,8.1536,8.159,8.1721,8.1794,8.1897,8.196,8.191,8.2156,8.21,8.2194,8.2192,8.2245,8.2242,8.2474,8.2287,8.2287,8.2286,8.2286,0,8.0684,8.0818,8.0919,8.1017,8.1168,8.1229,8.1378,8.1445,8.1544,8.1657,8.1685,8.179,8.1866,8.1983,8.2033,8.2193,8.2225,8.2261,8.2273,8.226,8.2256,8.2309,8.2299,8.2293,8.2292,8.229,8.2289,0,8.0817,8.0889,8.1065,8.1196,8.1232,8.1338,8.1451,8.1548,8.1609,8.1752,8.179,8.1886,8.2026,8.2098,8.2272,8.2306,8.2487,8.2491,8.2448,8.2453,8.2543,8.2535,8.2819,8.2861,8.2644,8.2646,8.2648,0,8.0928,8.1032,8.1174,8.1252,8.1321,8.1445,8.1529,8.1593,8.1679,8.182,8.1901,8.2042,8.2158,8.238,8.2467,8.2601,8.261,8.2701,8.263,8.2615,8.2615,8.2609,8.2621,8.2713,8.2715,8.2717,8.2718,0,8.1118,8.115,8.1268,8.1402,8.15,8.1608,8.1714,8.1777,8.1859,8.1954,8.2097,8.2188,8.2366,8.2507,8.2648,8.2719,8.2734,8.274,8.2769,8.2758,8.273,8.2749,8.2484,8.2733,8.2732,8.2731,8.273,8.2729,8.1246,8.134,8.1456,8.1589,8.1676,8.1775,8.1874,8.1948,8.2068,8.2218,8.2249,8.2401,8.2517,8.2708,8.2784,8.2905,8.2886,8.2928,8.2939,8.2949,8.2954,8.2708,8.293,8.293,8.293,8.2929,8.2929,0,8.144,8.1516,8.1637,8.1786,8.1891,8.1895,8.2013,8.2101,8.2235,8.2341,8.2455,8.2622,8.2759,8.2857,8.2997,8.3076,8.3086,8.3111,8.3107,8.3123,8.2961,8.2923,8.31,8.31,8.31,8.31,8.31,8.31,8.1553,8.1714,8.176,8.1965,8.2041,8.219,8.2258,8.2351,8.2436,8.262,8.2735,8.2797,8.2902,8.305,8.3177,8.3203,8.3255,8.3279,8.3305,8.3152,8.3134,8.3117,8.3082,8.3289,8.3289,8.3458,8.346,8.3461]}]]